This is the latest recevied weather packets stored in our database for station/object KM4NDN. If no packets are shown the sender has not sent any weather packets the latest 10 day(s).
| Time | Temp. | Humidity | Pressure | Rain* | Wind** | Luminosity | Snow |
|---|---|---|---|---|---|---|---|
| 1777899997 | 14.44° C | 58% | 1005.7 hPa | 0 mm | - | 332 W/m² | - |
| 1777899694 | 13.89° C | 59% | 1005.6 hPa | 0 mm | - | 323 W/m² | - |
| 1777899392 | 13.89° C | 58% | 1005.9 hPa | 0 mm | - | 298 W/m² | - |
| 1777899090 | 13.89° C | 59% | 1005.5 hPa | 0 mm | - | 293 W/m² | - |
| 1777898786 | 13.33° C | 60% | 1005.8 hPa | 0 mm | - | 333 W/m² | - |
| 1777898484 | 13.33° C | 60% | 1005.9 hPa | 0 mm | - | 161 W/m² | - |
| 1777898182 | 13.33° C | 60% | 1005.9 hPa | 0 mm | - | 165 W/m² | - |
| 1777897879 | 13.33° C | 59% | 1005.9 hPa | 0 mm | - | 151 W/m² | - |
| 1777897575 | 13.33° C | 59% | 1006.2 hPa | 0 mm | - | 182 W/m² | - |
| 1777897270 | 13.33° C | 59% | 1006 hPa | 0 mm | - | 222 W/m² | - |
| 1777896966 | 12.78° C | 59% | 1006 hPa | 0 mm | - | 147 W/m² | - |
| 1777896663 | 12.78° C | 60% | 1006 hPa | 0 mm | - | 184 W/m² | - |
| 1777896360 | 12.78° C | 60% | 1005.9 hPa | 0 mm | - | 123 W/m² | - |
| 1777896058 | 12.78° C | 60% | 1005.6 hPa | 0 mm | - | 125 W/m² | - |
| 1777895756 | 12.22° C | 61% | 1005.9 hPa | 0 mm | - | 108 W/m² | - |
| 1777895453 | 12.22° C | 60% | 1005.7 hPa | 0 mm | - | 80 W/m² | - |
| 1777895151 | 12.22° C | 60% | 1005.9 hPa | 0 mm | - | 97 W/m² | - |
| 1777894848 | 12.22° C | 60% | 1005.7 hPa | 0 mm | - | 107 W/m² | - |
| 1777894545 | 12.22° C | 60% | 1005.6 hPa | 0 mm | - | 82 W/m² | - |
| 1777894243 | 12.22° C | 60% | 1005.7 hPa | 0 mm | - | 74 W/m² | - |
| 1777893939 | 11.67° C | 60% | 1005.4 hPa | 0 mm | - | 65 W/m² | - |
| 1777893635 | 11.67° C | 61% | 1005.4 hPa | 0 mm | - | 55 W/m² | - |
| 1777893332 | 11.67° C | 61% | 1005.5 hPa | 0 mm | - | 49 W/m² | - |
| 1777893028 | 11.67° C | 61% | 1005.6 hPa | 0 mm | - | 41 W/m² | - |
| 1777892725 | 11.67° C | 61% | 1005.4 hPa | 0 mm | - | 35 W/m² | - |
* Rain latest hour (hover to see other rain measurements)
** Current wind speed in m/s (hover to see current wind gust speed)